Weather in Richards Bay

South Africa     28°45′29″S   32°04′16″E
temp.,
°C
wind,
m/s
gust,
m/s
humid.,
%
clouds,
%
prec.,
mm/h
press.,
hPa
HPBL,
m
24 january, mon
mon2423:00+19nnw22885 0.0 102241
02:00+19nw23905 0.0 102063
05:00+19nnw24905 0.0 101973
08:00+22nne2577100 0.0 1019234
11:00+29nne35481 0.0 10171520
14:00+33ene45385 0.0 10141980
17:00+29ene57545 0.0 1013936
20:00+23ne410775 0.0 1015568
25 january, tue
tue2523:00+21n28840 0.0 1016276
02:00+21n310830 0.0 1014353
05:00+20n311865 0.0 1014322
08:00+26n36643 0.0 1015510
11:00+33nne23350 0.0 10141604
14:00+33se54430 0.0 10121391
17:00+28e45667 0.0 1012827
20:00+24ene278668 0.0 1015308
26 january, wed
wed2623:00+22nne129436 0.1 101738
02:00+22n129316 0.1 101541
05:00+22n23946 0.0 101551
08:00+27n23705 0.0 1015750
11:00+31ese445010 0.0 10141881
14:00+31ese56472 0.0 10121069
17:00+29ene57590 0.0 1011877
20:00+24nne24840 0.0 1013105
27 january, thu
thu2723:00+23n279199 0.0 1014219
02:00+23nne2890100 0.0 1012330
05:00+23nne398911 0.0 1011362
08:00+28n586822 0.0 1012716
11:00+34nne46431 0.0 10101706
14:00+37ne44340 0.0 10072410
17:00+31ene58600 0.0 1007724
20:00+25nne4118217 0.0 1009605
28 january, fri
fri2823:00+25nne4128267 0.0 1010586
02:00+24nne5128215 0.0 1007514
05:00+23nne411850 0.0 1007446
08:00+27n47680 0.0 1008574
11:00+36ssw12410 0.0 10071623
14:00+32sse66593 0.0 1007943
17:00+28s567557 0.1 1008901
20:00+24s61393100 1.5 1012879